Retour au catalogue

SL-8 DEB

ActifLEO
NORAD 21184·DEBRIS·🇷🇺 Russia

Lancé Feb 12, 1991 depuis Plesetsk Cosmodrome

Loading…

Prochains Passages (prochaines 24 heures)

TLE

FraisSource: Space-Track

Époque: Sep 14, 2026, 12:30 UTC

1 21184U 91009AX  26257.52120716 -.00000042  00000-0 -25756-3 0  9997
2 21184  74.0212  88.1088 0132937 214.5688 173.2730 12.19113440579871

Suivez SL-8 DEB en temps réel avec AllMySat

Download on the App Store